Погода в Аральске

Погода в Аральске : погода сейчас, прогноз погоды и архив. Всё, что Вы хотите узнать о погоде в Аральске!

Хотите узнать прогноз погоды в Аральске? Тогда Вам сюда: Погода в Аральске

Поиск расширенной информации на нашем сайте:

Полезная информация:

Другие новости

Новости СМИ2

Главная страница сайта

Новости сайта

03.07.2017

Напоминаем, что на нашем специализированном сайте Метеоцентр.Азия вы можете получить высокодетализированные автоматические прогнозы погоды по пунктам России, СНГ и мира в авиационном формате (включающие направление и скорость ветра, видимость, явления погоды, количество и форму облачности, нижнюю и верхнюю границу облачности).

Рекомендуем:

Погода в Аральске - сегодня

Время (UTC), дата Ветер
(°,м/с) 
Видим.   Явления Облачность Т
(°С)
Тd
(°С)
f(%) Тe
(°С)
Pmin
(гПа)
dP
(гПа)
Po
(мм)
O2
(г/м3)
Тmin Tmax R s Состояние
почвы
09 15.09.19 300 (СЗ) 20000 м    6/6 600 м кучево-дожд. 
[Cb calv]
+26.3 +2.3 21 +26  1017.5  -0.7  758  278           
12 15.09.19 310 (СЗ) 20000 м    6/6 600 м кучево-дожд. 
[Cb calv]
+25.9 +1.3 20 +26  1017.1  -0.4  758  279           
15 15.09.19 230 (ЮЗ) н/о    3/0 средняя 
[Ac cuf]
+20.6 +5.5 37 +21  1017.5  0.3  758  283    +27.6       
18 15.09.19 230 (ЮЗ) н/о    3/0 средняя 
[Ac trans]
+15.5 +6.5 55 +16  1017.6  758  288    +27.6       
21 15.09.19 190 (Ю) н/о    3/0 средняя 
[Ac trans]
+12.9 +7.1 68 +13  1017.1  -0.5  758  290           
00 16.09.19 200 (Ю) н/о    9/0 
+13 +6.8 66 +14  1016.5  -0.6  758  290           
03 16.09.19 230 (ЮЗ) 20000 м    9/0 средняя, верхняя 
[Ac und|Ci sp]
+14.6 +7.3 62 +16  1017.2  0.7  758  289           
06 16.09.19 220 (ЮЗ) 20000 м    8/0 средняя 
[Ac und]
+24 +4.3 28 +24  1017  758  280  +11.9         
09 16.09.19 210 (ЮЗ) 20000 м    8/3 1000 м средняя, верхняя 
[Cu med, cong|Ac und|Ci fib]
+27.4 -0.5 16 +27  1015.7  -1.2  757  277           
12 16.09.19 220 (ЮЗ) 20000 м    8/4 600 м кучево-дожд., средняя 
[Cb calv|Ac und]
+27.1 -0.5 16 +27  1014.9  -0.8  757  277           
15 16.09.19 240 (ЮЗ) 2{15}  н/о    6/0 верхняя 
[Ci sp]
+21.1 +1.3 27 +21  1015.2  0.1  757  283    +28.1       
18 16.09.19 200 (Ю) н/о    3/0 верхняя 
[Ci sp]
+15.6 +6.7 55 +17  1016.1  0.8  757  288    +28.1       
21 16.09.19 210 (ЮЗ) н/о    ясно 
+14 +8.2 68 +15  1016.2  0.1  757  289           
00 17.09.19 120 (ЮВ) н/о    ясно 
+12.3 +4.6 59 +14  1016.2  757  291           
03 17.09.19 150 (ЮВ) 20000 м    ясно 
+13.5 +2.3 47 +14  1016.3  0.1  757  290           
06 17.09.19 190 (Ю) 20000 м    ясно 
+23.9 +8.4 37 +24  1016.7  0.6  758  279  +11         
09 17.09.19 210 (ЮЗ) 20000 м    ясно 
+27.7 +3.6 21 +28  1015.4  -1.2  757  276           
12 17.09.19 220 (ЮЗ) 20000 м    ясно 
+28.4 +2.7 19 +28  1014.1  -1.3  756  276           
15 17.09.19 190 (Ю) н/о    5/0 средняя, верхняя 
[Ac lent|Ci sp]
+22 +7.8 40 +22  1013.7  -0.5  756  280    +28.7       
18 17.09.19 090 (В) н/о    9/0 средняя 
[Ac und]
+21.6 +5.3 35 +22  1013.7  756  281    +28.7       
21 17.09.19 240 (ЮЗ) н/о    9/0 средняя 
[Ac und]
+19.7 +3 33 +21  1013.2  -0.6  755  283           
00 18.09.19 320 (СЗ) н/о  в посл. час ливневой дождь  10/6 600 м кучево-дожд., средняя 
[Cb calv|Ac und]
+18.4 +6.5 46 +19  1013  -0.2  755  284           
03 18.09.19 050 (СВ) 20000 м    8/3 600 м кучево-дожд., средняя, верхняя 
[Cb calv|Ac und|Ci sp]
+17.3 +3.6 40 +18  1012  -1  754  285      0.0     
06 18.09.19 130 (ЮВ) 20000 м    9/3 600 м кучево-дожд., средняя, верхняя 
[Cb calv|Ac und|Ci sp]
+25.6 -0.5 18 +26  1010.5  -1.3  753  278  +16.8    0.0     
09 18.09.19 140 (ЮВ) 20000 м    9/3 600 м кучево-дожд., средняя, верхняя 
[Cb calv|Ac und|Ci sp]
+30.3 -2.2 12 +30  1007.8  -2.6  751  273           
Время (UTC), дата Ветер
(°,м/с) 
Видим.   Явления Облачность Т
(°С)
Тd
(°С)
f(%) Тe
(°С)
Pmin
(гПа)
dP
(гПа)
Po
(мм)
O2
(г/м3)
Тmin Tmax R s Состояние
почвы

Для получения пояснительной информации подведите курсор к названию столбца.

ПОГОДА в Аральске - архив

Всё, что Вы хотите узнать о погоде в Аральске - удобно и подробно!

Выберите нужную дату (начиная с 1 января 2018* года) и нажмите кнопку "Найти".
Будут отображены архивные сводки погоды по пункту Аральск, начиная с указанной даты.


Отображать данные в формате CSV (для использования в таблицах Excel)


Внимание! Наш архив погоды предназначен исключительно для личного некоммерческого использования в познавательных целях. Если Вам необходимы официальные справки о состоянии погоды (для производственных, юридических, коммерческих и т.п. целей), обращайтесь в органы Росгидромета.

*Примечание: данная дата относится к архиву по метеостанциям СССР (Россия, СНГ, Балтия).
Архив по метеостанциям Зарубежной Европы и Азии (кроме Китая) хранится 10 дней, по другим регионам земного шара (Китай, Африка, Америка, Австралия, Океания) - 1 день.

Аральск - район местоположения метеостанции


Название, широта, долгота, высота метеостанции:
Аральск 46.8°ш. 61.6°д. 62 м над ур. моря [Казахстан]

Дополнительная информация

В oтличие oт бoльшинства пoгoдных сайтoв мы публикуем пoдрoбную метеoинфoрмацию в детальнoм прoфессиoнальнoм фoрмате.

Характеристики температуры и влажнoсти вoздуха измеряются на высoте 2 м в тени вдали oт зданий и деревьев.
Скoрoсть ветра измеряется на высoте 10 м (на урoвне рoста челoвека скoрoсть ветра ниже в 1.5-2 раза). Если метеoстанция нахoдится в гoрoде или в лесу, тo скoрoсть ветра занижена на 2-4 м/с пo сравнению с oткрытым местoм. Скoрoсть ветра над акватoриями крупных рек и oзёр, а также на вершинах хoлмoв на 2-5 м/с выше, чем в oбычных услoвиях.
Атмoсфернoе давление в разных тoчках местнoсти мoжет значительнo oтличаться oт давления на метеoстанции, в зависимoсти oт услoвий рельефа (при пoдъёме на 10 м давление пoнижается примернo на 1 мм рт.ст.).